Regional Weather Roundup
Issued by NWS

Home | Current Version | Previous Version | Text Only | Print | Product List | Glossary Off
Versions: 1 2 3 4 5 6 7 8 9 10 11 12 13 14 15 16 17 18 19 20 21 22 23 24 25 26 27 28 29 30 31 32 33 34 35 36 37 38 39 40 41 42 43 44 45 46 47 48 49 50

000
ASUS43 KLMK 021802
RWRKY
KENTUCKY REGIONAL WEATHER ROUNDUP
NATIONAL WEATHER SERVICE LOUISVILLE KY
200 PM EDT SUN AUG 02 2015

NOTE "FAIR" INDICATES FEW OR NO CLOUDS BELOW 12,000 FEET
WITH NO SIGNIFICANT WEATHER AND/OR OBSTRUCTIONS TO VISIBILITY.

KYZ001>023-026-027-061>063-070>075-021900-
WESTERN AND SOUTH CENTRAL KENTUCKY

CITY           SKY/WX    TMP DP  RH WIND       PRES   REMARKS
PADUCAH        SUNNY     88  69  53 W5        29.96F HX  92
HENDERSON      SUNNY     84  66  54 SW7       29.96F
OWENSBORO      SUNNY     87  68  53 E6        29.98F HX  90
HOPKINSVILLE   NOT AVBL
BOWLING GREEN  SUNNY     87  60  40 VRB6      29.99F
GLASGOW        NOT AVBL
$$

KYZ024-025-028>034-038-045-046-053-021900-
NORTH CENTRAL KENTUCKY

CITY           SKY/WX    TMP DP  RH WIND       PRES   REMARKS
LOUISVILLE/SDF MOSUNNY   87  59  38 S6        29.97F
LOUISVILLE/LOU SUNNY     87  61  41 VRB7      29.98F
FORT KNOX      NOT AVBL
$$

KYZ035>037-039>044-047>052-055>060-089>105-021900-
NORTHEAST KENTUCKY

CITY           SKY/WX    TMP DP  RH WIND       PRES   REMARKS
LEXINGTON      SUNNY     84  61  45 VRB6      30.01F
COVINGTON      MOSUNNY   84  61  45 S10       29.99S
FRANKFORT      SUNNY     84  61  45 S8        29.99F
$$

KYZ054-064>069-076>088-106>120-021900-
SOUTHEAST KENTUCKY

CITY           SKY/WX    TMP DP  RH WIND       PRES   REMARKS
JACKSON        SUNNY     81  58  45 CALM      30.04F
LONDON         SUNNY     83  57  41 S5        30.02F
SOMERSET       NOT AVBL
MIDDLESBORO    SUNNY     83  61  47 CALM      30.02S
MONTICELLO     CLEAR     85  61  44 CALM      30.04S
$$



USA.gov is the U.S. government's official web portal to all federal, state and local government web resources and services.